Sørkjosen Airport

Airport
ICAO code: 
ENSR
IATA Code: 
SOJ
Summary
ICAO Region: 
EUR
Territory: 
Location: 
Sørkjosen, Nordreisa, Troms,
Serving: 
Sørkjosen
Coordinates: 
Aerial View: 
69° 47' 11.268" N, 20° 57' 35.36" E
Airport CFIT: 
Altimeter Temperature Error Correction
Airport GND: 
Aircraft Ground De/Anti Icing
Airport WX: 
Low Level Turbulence
Metar
Observation
ENSR 201420Z 33019KT 9999 VCSH FEW018 SCT035 BKN060 01/M06 Q0995 RMK WIND 1119FT 32035KT
Station
Sorkjosen
Date/Time
2022-01-20 14:20:00
Wind direction
330°
Wind speed
19 kts
Lowest cloud amount
few clouds
Temperature
1°C
Dew point
-6°C
Humidity
59%
QNH
995 hPa
Weather condition
in vicinity: showers

Description

Airport in Sørkjosen in the municipality of Nordreisa, Troms in Northern Norway.

Climatology

Borderline Subpolar Oceanic/Continental subarctic climate (because of winter temperatures) (Köppen climate classification Cfc/Dfc) - uniform precipitation distribution, temperatures are moderated by the proximity of the ocean and warm currents - cool summers and comparatively mild winters.

Heavy snowfalls in winter.

Runways

Designator Length Width Surface Rops
15/33 919 30 ASP No/No
Airport map: 
Aerial View: 

SKYbrary Partners:

Safety knowledge contributed by: